Regional Weather Roundup
Issued by NWS Upton, NY

Current Version | Previous Version | Graphics & Text | Print | Product List | Glossary Off
Versions: 1 2 3 4 5 6 7 8 9 10 11 12 13 14 15 16 17 18 19 20 21 22 23 24 25 26 27 28 29 30 31 32 33 34 35 36 37 38 39 40 41 42 43 44 45 46 47 48 49 50

000
ASUS41 KOKX 220105
RWROKX

REGIONAL WEATHER ROUNDUP
NATIONAL WEATHER SERVICE NEW YORK NY
900 PM EDT SUN SEP 21 2014

NOTE: "FAIR" INDICATES FEW OR NO CLOUDS BELOW 12,000 FEET WITH NO
SIGNIFICANT WEATHER AND/OR OBSTRUCTIONS TO VISIBILITY.

NYZ071-072-176-178-NJZ106-104-220200-
NEW YORK CITY METRO AREA


CITY           SKY/WX    TMP DP  RH WIND       PRES   REMARKS
CENTRAL PARK   PTCLDY    71  65  81 W3        29.64F
LAGUARDIA APRT PTCLDY    73  67  81 S7        29.61F
KENNEDY INTL   MOCLDY    70  68  93 SW6       29.63R
NEWARK/LIBERTY MOCLDY    72  67  84 SW7       29.62S
BRNX BOT. GARD   N/A     68  66  94 CALM      29.62F
TETERBORO      PTCLDY    71  65  81 SW7       29.61S
$$

NYZ177-179-078>081-220200-
LONG ISLAND NEW YORK

CITY           SKY/WX    TMP DP  RH WIND       PRES   REMARKS
FARMINGDALE    PTCLDY    70  67  90 W5        29.62S
ISLIP          MOCLDY    69  67  93 CALM      29.59F FOG
SHIRLEY        MOCLDY    69  67  93 CALM      29.62S
WESTHAMPTON    CLOUDY    71  68  90 W5        29.62S
MONTAUK POINT    N/A     69  67  93 CALM      29.62S
$$

NYZ052-065-067-220200-
HUDSON VALLEY

CITY           SKY/WX    TMP DP  RH WIND       PRES   REMARKS
WHITE PLAINS   PTCLDY    66  65  96 CALM      29.62F FOG
NEWBURGH       MOCLDY    68  66  94 CALM      29.63S
MONTGOMERY     PTCLDY    67  64  90 SW3       29.62R
POUGHKEEPSIE   PTCLDY    68  66  93 CALM      29.60S
ALBANY         MOCLDY    74  65  73 S10       29.57F
$$

NJZ001-105-106-008-010-013-015-019>022-104-220200-
NEW JERSEY

CITY           SKY/WX    TMP DP  RH WIND       PRES   REMARKS
NEWARK/LIBERTY MOCLDY    72  67  84 SW7       29.62S
TETERBORO      PTCLDY    71  65  81 SW7       29.61S
CALDWELL       PTCLDY    68  64  87 CALM      29.63S
MORRISTOWN     PTCLDY    66  64  94 CALM      29.64R
SOMERVILLE     MOCLDY    65  63  93 CALM      29.62R
LINDEN         FAIR      74  70  87 CALM      29.64S
SUSSEX         PTCLDY    67  62  84 CALM      29.63R
ANDOVER          N/A     64  62  93 SW3       29.64S
TRENTON        MOCLDY    71  65  81 S6        29.63S
MILLVILLE      MOCLDY    69  66  90 CALM      29.67R
ATLANTIC CITY  CLEAR     70  68  93 SW7       29.67R
WRIGHTSTOWN    CLEAR     69  69  99 SW5       29.63R
TOMS RIVER     CLEAR     66  64  94 CALM      29.65R
BELMAR         PTCLDY    70  64  83 SW6       29.64S
$$

PAZ047>061-062-071-220200-
EASTERN PENNSYLVANIA

CITY           SKY/WX    TMP DP  RH WIND       PRES   REMARKS
PHILADELPHIA   MOCLDY    73  65  75 S6        29.65S
ALLENTOWN      CLEAR     66  58  75 SW5       29.63S
SCRANTON       RAIN      64  61  90 CALM      29.67R FOG
$$

CTZ002-004>006-009-010-012-RIZ004-006-007-MAZ004-011-015-220200-
SOUTHERN NEW ENGLAND
 IN CT

CITY           SKY/WX    TMP DP  RH WIND       PRES   REMARKS
BRADLEY INTL   CLOUDY    71  68  90 S5        29.60S
HARTFORD       MOCLDY    68  67  96 MISG      29.60S FOG
DANBURY        FOG       65  64  97 CALM      29.63F VSB 3/4
WTRBRY/OXFORD  MOCLDY    66  63  88 CALM      29.64S FOG
BRIDGEPORT     MOCLDY    70  69  97 CALM      29.60F
MERIDEN        FOG       67  65  93 CALM      29.61S VSB 3/4
NEW HAVEN      CLOUDY    71  69  93 CALM      29.61F FOG
CHESTER        FOG       68  68 100 CALM      29.62F VSB 3/4
GROTON         CLOUDY    65  64  97 CALM      29.61R
WILLIMANTIC    CLOUDY    69  67  93 MISG      29.62S

 IN RI

CITY           SKY/WX    TMP DP  RH WIND       PRES   REMARKS
PROVIDENCE     CLOUDY    69  68  96 S3        29.61S FOG
BLOCK ISLAND   CLOUDY    68  64  88 CALM      29.61S
WESTERLY       CLOUDY    68  66  93 CALM      29.61S

 IN MA

CITY           SKY/WX    TMP DP  RH WIND       PRES   REMARKS
BOSTON         LGT RAIN  70  68  94 SW6       29.60F
WORCESTER      FOG       67  66  97 SW3       29.64S VSB 1/2
WESTFIELD      CLOUDY    70  68  93 SE3       29.61S
PROVINCETOWN   CLOUDY    66  64  94 SW3       29.61F
NANTUCKET      CLOUDY    66  64  93 NE7       29.57F
$$

ANZ330-335-338-340-345-350-353-355-220200-
COASTAL MARINE OBSERVATIONS


STATION/POSITION TIME  SKY/WX   TEMP    WIND        PRES    VSBY  WAVE
                                AIR SEA DIR/SP/G                  HT/PER
                 (UTC)          (F)     (DEG/KT/KT) (MB)    (MI)  (FT/S)
NY HARB ENTRANCE 0100            70 71  230/  6/  8 1003.5          4/ 8
4S FIRE IS       0100               71                N/A           4/ 8
20S FIRE ISLAND  0100            69 69  250/  2/  4 1003.5          4/ 8
23SW MTP         0100                                 N/A           4/ 7
HUDSON CANYON    0100            70 71  320/  8/ 10 1002.7          4/ 7
EXECUTION ROCKS  0100            71 70   CALM  /  2   N/A
WESTERN LI SOUND 0100            72     240/  2/  4   N/A           0
CENTRAL LI SOUND 0000            70 71  240/  2/  4   N/A           1
EASTERN LI SOUND 0000            69 68   80/  2/  4   N/A
ROBBINS REEF     0100            71     200/  5/  5 1001.9
$$


>>>>>>>>>>>>>>>>>>>>>>>>>>>> KEY <<<<<<<<<<<<<<<<<<<<<<<<<<<
>                                                          <
>     SKY/WX - SKY CONDITION/PRESENT WEATHER               <
>     TMP    - TEMPERATURE IN FAHRENHEIT                   <
>     DP     - DEWPOINT IN FAHRENHEIT                      <
>     RH     - RELATIVE HUMIDITY IN PERCENT                <
>     WIND   - DIRECTION AND SPEED IN MPH                  <
>     PRES   - MEAN SEA LEVEL PRESSURE IN INCHES OF HG     <
>     WCI    - WIND CHILL INDEX                            <
>     VSB    - VISIBILITY IN MILES                         <
>     HX     - HEAT INDEX                                  <
>     TC     - TEMPERATURE IN CELSIUS                      <
>     VRB    - VARIABLE WIND DIRECTION                     <
>                                                          <
>>>>>>>>>>>>>>>>>>>>>>>>>>>> KEY <<<<<<<<<<<<<<<<<<<<<<<<<<<





USA.gov is the U.S. government's official web portal to all federal, state and local government web resources and services.